Dewpoint
69 71 71 72 72 73 72 73 72 71 70 70 70 70 70 70 67 67 69 69 70 70 71 71 71 71 69 71 70 72 74 73 73 75 76 76 75 75 74 76 76 74 74 74 72 72 72 72 72 72 72 71 69 68 67 67 70 69 69 69 68 71 72 73 71 71 71 70 70 68 68 70 67 72 71 70 71 72 72 73 74 72 71 74 75
69 71 72 71 71 72 72 72 72 71 69 69 70 69 69 70 70 69 67 70 70 68 70 69 71 70 69 69 71 71 73 75 72 73 75 75 75 73 73 75 76 75 74 74 74 72 73 74 72 71 73 72 70 68 67 64 66 65 67 67 67 68 72 72 72 71 71 72 70 72 70 72 70 73 73 72 71 73 71 72 69 70 71 72 76
68 71 71 71 72 71 71 71 72 71 69 68 67 66 67 69 70 70 67 66 70 69 68 68 70 72 71 71 72 72 74 74 73 73 73 74 74 73 71 73 74 74 73 73 72 73 73 73 72 72 70 71 72 70 67 67 65 66 66 67 69 68 70 74 73 71 71 71 73 70 70 71 71 72 74 73 75 75 74 72 68 66 69 71 72
65 69 70 70 71 71 72 71 70 69 68 67 66 66 64 66 69 69 68 65 65 69 68 68 69 73 72 72 73 74 73 73 73 72 73 73 74 74 73 73 73 73 72 72 71 71 72 73 72 71 70 71 72 71 69 68 69 70 70 71 72 71 72 73 75 74 72 71 73 73 72 73 71 73 72 72 71 73 72 72 71 71 70 68 68
65 67 69 69 69 70 70 69 69 69 67 66 65 65 64 63 66 68 67 65 64 66 70 70 71 72 70 70 72 73 73 73 73 70 70 71 72 71 72 73 73 73 73 73 73 72 72 71 71 72 71 71 72 71 70 72 71 70 70 70 71 71 72 73 75 75 75 74 73 74 75 74 73 74 75 72 70 72 74 75 72 72 74 70 65
64 65 67 67 69 69 70 69 68 68 68 66 65 65 64 64 64 66 67 66 65 64 68 69 69 71 72 70 70 73 74 73 74 73 69 69 71 70 71 72 71 72 73 72 72 72 72 72 71 71 71 71 71 70 72 73 73 71 71 71 71 72 74 75 75 75 75 74 75 73 75 73 72 73 73 75 71 69 70 72 74 76 76 73 70
66 65 66 66 68 69 69 70 69 67 68 68 66 66 65 64 63 64 66 66 64 63 64 69 69 69 72 70 68 70 73 72 74 75 73 71 70 72 68 69 70 71 72 71 70 71 71 71 72 72 71 72 71 72 73 74 73 74 74 74 74 74 74 74 74 75 75 74 73 73 72 72 74 72 72 76 76 74 72 71 71 72 75 76 74
65 66 67 68 69 69 69 70 69 69 69 71 69 67 66 66 66 66 67 67 65 63 62 64 68 69 69 69 69 69 72 73 73 75 74 71 69 71 72 69 67 68 69 70 69 68 69 70 69 70 71 72 72 72 72 73 74 73 73 74 74 74 74 72 72 73 73 72 70 69 70 72 72 71 72 75 76 75 73 72 71 71 71 74 76
66 66 67 69 70 71 71 70 71 71 70 71 71 69 68 68 68 68 69 67 65 64 63 62 65 68 69 69 69 67 67 71 71 73 74 74 71 68 70 71 69 68 68 67 67 68 67 67 68 68 72 76 76 76 74 75 72 72 73 74 75 74 75 73 72 72 72 71 71 72 71 71 72 71 70 71 71 70 71 71 72 72 72 71 73
67 67 66 69 71 72 72 73 72 72 71 71 72 71 69 69 67 68 68 68 69 69 68 66 63 64 68 69 69 67 67 68 72 69 70 73 73 67 68 71 71 69 68 68 65 65 65 65 64 74 75 77 77 75 73 74 75 73 73 75 75 75 74 73 72 72 73 72 70 69 68 67 66 68 66 68 70 72 71 72 71 70 71 72 73
69 67 68 69 71 72 73 73 73 73 73 72 72 72 71 69 69 70 70 70 70 71 69 67 65 64 65 67 69 68 67 66 68 65 66 68 71 72 70 70 72 72 70 70 69 65 63 64 65 71 76 77 77 73 72 70 71 71 71 73 76 77 75 73 72 72 71 72 71 71 68 68 68 67 65 62 63 67 68 70 71 72 72 71 70
70 70 69 71 71 72 73 74 74 73 74 73 73 73 72 71 71 71 70 70 72 70 69 69 69 66 64 65 67 68 68 66 64 64 65 65 69 71 69 70 69 70 70 68 67 67 65 63 62 61 66 71 72 76 74 71 69 69 69 69 70 71 72 76 75 73 73 72 71 71 69 68 69 70 66 63 66 68 71 72 72 73 73 72 71
70 71 71 71 73 74 74 73 73 73 74 74 74 74 73 72 71 70 69 70 70 72 72 70 70 69 67 67 66 66 68 65 62 63 64 64 65 68 65 67 67 67 68 68 68 68 68 67 65 63 60 76 74 74 77 77 70 68 68 69 70 69 67 67 69 76 74 74 73 72 72 71 71 71 70 71 74 74 73 71 73 72 73 72 72
70 71 73 73 72 72 73 72 72 72 73 74 74 73 73 73 71 69 69 71 71 71 70 71 71 72 71 69 69 67 68 66 61 61 62 62 63 66 68 65 65 65 67 67 67 68 69 69 69 68 66 67 73 73 75 77 78 76 74 74 74 73 69 67 66 67 71 72 73 73 74 75 74 75 76 76 75 74 73 73 74 72 72 72 73
68 70 71 72 73 71 73 73 72 71 73 74 74 74 73 73 72 70 68 69 71 72 71 71 71 72 70 70 69 68 67 63 59 59 60 60 61 64 69 65 64 65 66 67 70 69 70 69 70 70 72 71 69 74 74 75 77 78 78 76 75 75 75 73 72 72 73 72 72 73 74 75 77 77 77 77 77 76 76 76 76 75 75 75 75
65 67 68 69 69 71 72 72 72 72 73 73 73 73 73 74 74 72 71 68 69 70 71 71 70 70 70 70 69 69 68 62 59 58 58 59 60 69 72 70 68 66 66 68 69 72 72 71 72 72 72 73 73 69 73 75 75 76 76 77 76 75 74 74 70 70 73 72 73 71 70 70 69 79 82 78 77 77 77 76 75 76 74 72 71
64 64 65 65 67 68 70 71 74 73 71 71 72 72 73 73 73 73 72 70 68 68 70 70 72 70 70 70 70 70 69 65 58 57 57 57 61 70 72 71 71 69 68 69 69 70 71 73 73 71 72 74 70 65 66 72 74 74 75 75 74 73 71 72 69 66 66 65 65 66 65 65 64 63 62 63 74 74 75 74 73 70 71 70 70
64 64 63 64 65 67 68 70 72 73 73 71 71 71 71 72 71 72 72 71 68 67 69 70 71 71 70 69 69 70 70 66 57 56 56 56 63 71 71 71 72 71 71 70 69 70 72 73 75 74 73 73 67 63 64 72 74 74 73 73 74 73 73 71 67 72 65 64 64 64 64 65 65 65 65 64 63 68 74 72 70 68 67 68 68
63 62 63 63 64 65 66 68 70 70 72 73 71 71 71 71 71 72 72 71 71 70 70 70 70 71 69 69 70 69 69 67 56 56 56 55 63 72 71 71 71 72 71 71 72 71 72 74 74 72 73 72 65 62 63 70 75 75 74 73 73 72 72 72 71 69 73 75 75 74 74 69 73 75 74 68 67 69 72 72 70 69 68 67 68
63 64 64 64 64 65 65 67 68 69 70 70 73 74 74 72 71 70 72 72 73 71 70 70 69 70 70 70 69 69 69 70 69 55 55 54 57 72 71 70 71 72 72 72 72 73 72 73 73 65 63 64 63 60 61 63 74 75 75 73 72 72 71 71 73 72 74 74 76 76 75 75 74 74 75 75 73 73 72 72 72 71 71 70 70
62 64 64 64 64 64 64 65 65 66 67 69 70 73 73 73 74 73 74 71 72 72 72 71 69 70 70 70 70 70 69 70 76 56 54 54 55 62 72 72 72 72 72 72 72 72 72 72 72 67 61 61 60 59 57 58 65 74 75 74 73 74 73 72 72 76 75 75 75 74 73 74 74 73 72 73 71 72 72 72 72 71 70 69 67
62 62 64 64 64 64 64 65 66 65 67 68 69 72 72 72 73 73 73 73 72 73 74 73 71 70 71 71 71 71 72 70 71 59 55 54 54 55 69 72 72 72 72 72 72 72 72 72 73 69 61 60 59 58 56 57 58 74 74 65 64 65 77 75 74 73 73 73 72 71 71 71 69 69 68 68 68 70 72 72 71 70 70 69 68
63 62 63 64 65 64 64 64 64 64 66 67 68 70 72 71 71 72 71 72 72 72 72 72 72 73 72 72 72 72 74 74 64 68 56 53 53 53 59 66 64 74 72 72 72 72 72 73 73 70 59 58 57 57 57 57 58 69 63 62 61 62 69 73 74 73 72 73 72 71 70 70 70 70 69 69 67 70 68 70 71 72 72 70 70
60 62 63 64 64 64 64 64 65 65 67 68 69 70 72 72 71 72 72 72 71 70 71 73 72 72 73 76 74 72 74 74 69 63 64 53 53 52 54 57 62 70 71 70 71 70 72 72 71 63 57 54 55 56 57 58 65 60 59 60 61 63 72 73 72 73 73 73 72 71 71 71 70 70 70 72 69 72 71 70 70 69 72 72 74
60 60 61 62 63 62 64 66 66 65 66 68 69 71 70 70 71 72 72 72 71 71 71 71 71 72 73 72 74 75 72 73 73 69 62 56 53 52 53 54 56 59 70 71 72 71 66 63 63 61 56 54 54 55 56 56 57 59 58 59 63 70 72 72 72 73 72 72 72 72 72 72 72 72 74 75 75 74 74 72 73 74 74 73 75
60 60 60 60 60 62 62 62 63 64 64 65 67 69 70 71 71 72 73 73 73 72 71 71 71 71 72 73 74 73 74 74 73 74 66 61 57 53 53 53 55 56 62 68 64 63 61 60 59 59 58 59 66 69 70 69 59 57 59 61 68 69 70 71 73 72 72 71 71 72 72 72 72 74 76 76 75 73 74 74 74 74 75 75 74
60 60 59 58 60 61 63 61 61 63 64 63 64 66 67 70 70 72 72 72 72 73 71 71 71 71 71 72 72 74 74 75 76 76 73 70 67 64 59 59 55 55 61 66 64 67 69 67 68 65 65 64 65 66 67 68 68 65 65 66 68 69 70 71 71 72 72 72 71 72 72 73 74 75 75 76 76 76 76 75 74 73 73 74 74
57 59 59 58 59 60 61 62 62 61 61 62 62 63 64 65 67 69 70 71 71 72 72 71 70 70 70 71 72 73 74 74 75 75 72 73 72 71 67 65 64 63 63 65 68 68 68 65 65 70 71 72 71 71 71 72 70 70 70 69 68 69 70 70 70 72 73 73 73 73 72 74 73 73 73 74 74 75 76 75 74 74 73 73 72
59 58 58 58 59 61 61 61 59 60 61 62 62 63 62 62 64 64 65 67 70 71 72 72 72 72 73 72 71 70 72 72 74 66 72 66 72 73 71 69 68 68 64 60 68 69 70 70 69 69 70 69 69 70 69 70 70 71 71 71 70 70 70 70 70 70 71 72 72 73 73 73 73 73 73 73 74 74 75 75 76 74 75 73 71
58 58 57 57 58 58 59 59 60 60 59 60 61 62 62 56 59 62 62 61 59 57 56 67 70 72 72 72 73 72 72 73 64 58 58 61 60 62 64 62 60 65 62 58 66 70 70 70 70 69 69 70 69 69 69 69 69 70 71 67 70 69 69 69 70 69 71 71 72 72 73 73 73 73 73 73 74 74 74 72 75 75 74 72 71
57 56 56 56 56 57 58 59 60 61 61 60 62 61 61 63 52 51 53 56 54 51 49 50 51 55 65 68 68 63 61 59 56 55 54 56 56 56 57 58 55 56 57 66 67 69 69 70 70 70 70 70 69 69 70 69 68 69 70 70 71 69 68 69 70 70 69 71 71 72 72 72 72 72 72 73 73 73 73 74 74 75 73 71 71
54 55 55 56 57 58 58 59 59 59 59 60 61 61 60 60 61 56 53 53 52 50 50 49 49 49 51 55 62 67 63 57 55 55 54 53 53 53 52 52 51 52 53 58 69 69 69 69 70 70 70 69 69 69 69 69 69 69 69 69 69 70 70 70 70 71 71 71 71 71 72 72 72 72 72 71 70 72 72 72 72 72 72 71 71
54 55 56 57 57 58 58 59 59 58 58 58 59 60 59 59 59 59 61 54 52 50 49 49 49 49 50 49 48 50 52 53 52 52 51 49 49 50 51 50 49 48 51 65 70 70 71 70 70 71 70 70 70 70 70 69 69 69 69 69 69 69 70 73 72 72 71 71 72 71 72 72 72 71 71 71 71 72 71 71 71 71 71 72 70
56 55 55 56 56 57 58 57 58 58 57 57 58 58 59 60 59 60 59 60 61 58 48 47 48 48 47 46 47 48 48 47 48 48 49 50 48 48 48 59 48 47 58 70 71 71 71 71 71 71 71 71 70 69 70 70 71 71 70 70 70 71 72 75 74 72 71 71 71 71 71 71 70 72 72 71 71 71 71 70 71 70 70 71 71
55 55 55 57 57 55 55 55 56 57 57 57 57 58 58 60 60 60 59 59 59 60 61 63 57 52 65 62 56 50 49 48 48 48 48 49 49 49 51 67 68 64 62 66 70 71 71 71 71 71 72 71 71 71 70 71 70 71 70 71 71 71 71 72 71 73 72 72 71 72 72 71 72 70 70 71 70 70 69 70 70 71 71 71 70
54 54 53 54 55 54 54 55 55 56 56 57 57 57 58 58 58 60 59 60 59 59 60 61 62 58 55 54 53 51 51 50 49 47 46 46 48 49 67 70 70 69 68 67 68 70 70 71 71 71 72 72 72 72 72 71 71 71 72 71 71 72 72 72 71 73 74 74 72 72 70 72 72 72 72 71 71 70 69 70 70 69 70 71 71
53 52 52 54 54 54 54 55 55 56 56 56 56 57 59 59 59 58 60 59 59 59 59 61 61 62 62 64 64 56 46 45 46 46 45 45 45 57 68 72 72 71 69 69 68 69 70 70 71 72 72 72 72 73 72 72 73 73 70 73 73 73 73 72 72 72 73 73 73 73 73 73 71 72 71 71 69 69 69 70 70 69 71 69 67
52 52 53 54 55 55 54 54 54 55 56 56 57 58 57 58 58 58 58 59 58 58 58 59 59 61 61 62 65 67 67 49 46 45 44 45 52 61 65 68 70 71 71 71 70 70 70 71 71 72 72 72 73 73 72 72 72 73 72 74 74 74 69 74 72 75 75 73 72 72 72 72 72 71 69 70 70 69 69 68 69 70 71 70 71
52 53 53 53 53 53 53 54 55 55 55 56 56 56 56 56 56 56 57 57 58 57 57 57 58 59 60 62 63 64 64 66 67 68 68 66 63 64 66 67 69 70 72 72 71 71 71 71 71 72 72 73 72 73 73 72 73 72 73 73 73 73 73 73 73 74 73 73 73 72 72 72 72 72 71 70 70 69 69 69 69 70 71 72 72
50 51 51 53 52 52 53 55 55 55 56 55 55 55 55 55 55 55 55 56 55 56 56 56 57 58 58 60 60 59 59 60 62 64 67 69 69 68 68 69 69 70 71 72 72 73 73 72 72 72 73 74 73 73 73 73 73 73 73 73 73 73 73 73 73 73 73 73 72 72 72 72 71 72 72 71 70 70 70 69 69 70 71 71 72
50 51 53 52 52 51 52 53 54 54 55 55 55 54 54 54 54 55 54 54 54 54 55 55 55 57 56 55 50 50 58 59 61 62 64 66 69 69 69 69 70 71 71 71 71 72 73 73 73 73 73 73 73 74 74 73 73 73 72 72 73 73 73 73 73 72 73 73 73 72 73 72 71 72 72 72 67 68 69 70 70 70 71 72 72
49 50 51 50 51 52 52 53 53 54 54 54 54 53 54 53 53 53 53 53 54 54 54 54 54 56 53 49 48 47 54 56 58 60 63 64 66 68 69 70 70 71 71 71 71 72 72 73 73 74 74 74 73 73 73 73 73 73 73 73 73 73 73 73 73 73 74 73 73 73 73 73 72 72 72 66 72 72 72 72 71 72 72 71 71
51 51 51 51 50 51 51 52 53 52 52 52 52 53 53 53 53 52 52 52 52 52 52 53 53 54 53 50 51 49 55 56 59 61 63 64 65 65 67 68 69 70 71 71 71 72 71 72 72 72 73 73 74 75 74 74 74 74 74 73 72 73 75 74 74 73 73 73 73 73 73 73 73 72 73 72 72 73 73 73 73 72 72 72 71
50 50 50 50 50 51 52 51 52 52 52 52 52 52 52 52 52 52 51 51 51 51 51 51 52 51 52 51 52 53 54 55 56 57 58 60 62 65 66 65 63 63 64 67 68 69 70 71 71 71 72 72 73 74 74 74 74 74 74 73 73 73 74 73 73 73 72 72 72 72 72 72 72 73 72 71 73 72 72 72 72 71 70 70 70
48 48 48 48 49 50 50 52 52 51 51 51 50 50 51 50 50 50 50 50 50 50 50 50 50 50 50 50 51 51 51 52 52 53 53 53 54 55 55 55 56 57 56 57 58 59 59 60 61 63 65 68 70 73 74 74 74 74 74 74 74 73 73 73 73 72 72 73 72 71 72 71 72 72 72 72 72 72 71 72 72 67 69 69 69
47 47 48 48 48 49 49 49 51 50 50 49 49 49 49 49 49 49 49 49 49 49 49 49 48 48 48 48 49 49 49 49 49 49 50 50 50 50 50 51 51 52 52 52 53 54 54 55 56 56 57 58 60 61 63 65 68 72 74 75 74 73 73 73 73 73 73 73 72 71 71 71 72 72 71 72 72 72 72 71 71 70 69 69 69
46 46 46 47 47 48 49 49 49 48 49 48 49 48 48 48 48 48 49 48 48 49 48 47 46 46 46 46 47 47 47 47 47 47 47 48 48 47 47 48 48 49 50 50 50 50 51 52 52 52 52 54 55 56 58 59 61 63 65 69 72 73 73 72 72 73 72 72 72 72 71 70 70 70 70 71 71 71 70 70 69 69 69 68 68
44 45 46 47 47 47 47 47 47 48 47 47 47 47 47 47 47 47 47 46 46 46 46 46 45 45 45 45 46 45 45 45 46 46 45 45 45 46 46 47 47 47 47 47 47 48 49 49 49 50 50 51 51 52 53 54 55 57 59 61 64 63 54 50 62 69 72 72 72 72 72 72 71 71 72 72 71 70 70 69 68 68 69 68 68
44 45 45 46 46 46 46 46 47 46 46 46 46 46 46 46 46 46 46 45 45 45 44 44 44 44 44 45 45 44 44 44 44 44 43 44 44 44 45 45 45 45 45 45 45 46 47 47 48 49 49 49 49 50 50 50 50 50 51 52 51 43 41 42 46 56 60 69 71 71 72 72 72 72 72 71 70 70 70 70 69 68 68 69 70
43 45 45 45 45 46 46 46 45 45 45 45 45 45 45 45 45 45 44 44 44 44 43 43 43 43 43 43 44 43 43 43 42 42 42 43 43 43 43 43 44 44 43 44 43 44 44 45 46 46 47 48 48 48 48 47 47 46 46 45 40 38 38 40 42 44 50 62 69 70 70 71 71 71 71 71 70 70 70 69 68 67 67 68 67
43 44 45 45 44 45 45 45 44 44 44 44 44 44 44 44 44 43 43 43 43 42 42 42 41 42 42 42 43 42 42 42 42 42 42 42 42 42 42 42 42 43 42 42 43 43 43 43 44 44 44 45 45 46 46 45 45 43 40 39 37 37 38 40 48 43 43 46 59 66 68 69 69 70 70 70 70 69 67 67 67 66 66 65 64